Starlink 36119

operational
NORAD ID: 67619 Int'l Des: 2026-020 Owner: SPXS Country: US Constellation: starlink
LEOCIRCULAR

About Starlink 36119

Description loading...

Live Position

Loading 3D Globe...

Upcoming Passes

Altitude History

Altitude vs Time

uPlot chart will show altitude changes over time

Two-Line Element Set

1 67619U 26020C 26066.14506954 .00332124 00000-0 19430-2 0 9997
2 67619 42.9986 157.7191 0000951 294.3524 65.7246 15.76604792 5680
Epoch: Mar 7, 2026 • Age: 15 hours

Current Status

Altitude 345.3 km
Velocity 7.70 km/s
Sub-Earth Point -25.29°S, 26°W
Launch Date Jan 30, 2026
Age 36 days
Type internet

Technical Details

Classification Payload
Mass 575.00 kg
Dry Mass 530.00 kg
Total Mass 575.00 kg
Length 0.30 m
Diameter 4.10 m
Span 29.00 m
Shape Box + pan
Manufacturer SPXS
Bus Type Starlink V2MO
Phase Status In Orbit
Owner/State SPXS/US

Large Constellations

Loading constellations...